Location: Gazon
(48.1318°N, 1.2708°W)
Time: 01:24:49
(UTC+00:00)

ATLAS 3B R/B - Pass Details

Date: 18 September 2020
Orbit: 1016 x 1179 km, 63.8° (Epoch: 28 October)

Event Time Altitude Azimuth Distance (km) Brightness Sun altitude
Rises 21:20:31 0° 319° (NW) 3,823 6.8 -29.7°
Reaches altitude 10° 21:23:08 10° 322° (NW) 2,886 5.9 -30.0°
Maximum altitude 21:29:58 73° 47° (NE) 1,139 2.7 -30.8°
Enters shadow 21:30:03 73° 52° (NE) 1,140 2.7 -30.9°
